Starlink 4447

operational
NORAD ID: 53472 Int'l Des: 2022-099 Owner: SPXS Country: US Constellation: starlink
LEOCIRCULARRETROGRADESSO

About Starlink 4447

Description loading...

Live Position

Loading 3D Globe...

Upcoming Passes

Altitude History

Altitude vs Time

uPlot chart will show altitude changes over time

Two-Line Element Set

1 53472U 22099H 25305.34595096 .00001304 00000-0 10604-3 0 9991
2 53472 97.6051 64.5675 0001934 87.0216 273.1229 15.01258079176722
Epoch: Nov 1, 2025 • Age: 29 hours

Current Status

Altitude 570.1 km
Velocity 7.58 km/s
Sub-Earth Point 50.29°N, 7.83°E
Launch Date Aug 12, 2022
Age 3.2 years
Type internet

Technical Details

Classification Payload
Mass 300.00 kg
Dry Mass 275.00 kg
Total Mass 300.00 kg
Length 0.20 m
Diameter 2.80 m
Span 9.00 m
Shape Box + pan
Manufacturer SPXS
Bus Type Starlink
Phase Status In Orbit
Owner/State SPXS/US

Large Constellations

Loading constellations...